Location: Ago
(8.4667°N, 4.4833°E)
Time: 22:52:20
(UTC+00:00)

NOSS 3-4 (A) - Pass Details

Date: 18 September 2020
Orbit: 886 x 1326 km, 63.4° (Epoch: 19 October)

Event Time Altitude Azimuth Distance (km) Brightness Sun altitude
Rises 18:40:09 0° 189° (S) 3,594 6.5 -15.6°
Reaches altitude 10° 18:42:52 10° 182° (S) 2,608 5.7 -16.3°
Maximum altitude 18:48:28 42° 113° (ESE) 1,253 3.6 -17.7°
Enters shadow 18:51:41 23° 56° (NE) 1,807 4.5 -18.5°
